This demonstration page uses our WeatherBlox Daily Observations layout. Learn more.

Left ArrowRight Arrow

38.80484, -77.04692

Hourly Observations for October 17, 2019

Temp ( °F °C ) Dew Point ( °F °C ) Humidity (%) Winds ( mph kmh ) Pressure ( in mb ) Visibility ( mi km ) Precip ( " mm )
12:52 am 00:52 Mostly Clear 52 11.1 38 3.3 59 59 W 9 15 29.60 1002 10 16 0.00 0.00
1:52 am 01:52 Partly Cloudy 50 10 38 3.3 63 63 SW 6 9 29.59 1002 10 16 0.00 0.00
2:52 am 02:52 Cloudy 53 11.7 39 3.9 59 59 W 13 20 29.58 1002 10 16 0.00 0.00
3:52 am 03:52 Cloudy 53 11.7 39 3.9 59 59 SW 9 15 29.57 1001 10 16 0.00 0.00
4:52 am 04:52 Mostly Cloudy 55 12.8 38 3.3 53 53 W 16 26 29.59 1002 10 16 0.00 0.00
5:52 am 05:52 Mostly Cloudy 55 12.8 38 3.3 53 53 W 18 30 29.61 1003 10 16 0.00 0.00
6:52 am 06:52 Mostly Cloudy 54 12.2 37 2.8 53 53 W 16 26 29.62 1003 10 16 0.00 0.00
7:52 am 07:52 Mostly Cloudy 54 12.2 37 2.8 53 53 W 13 20 29.63 1004 10 16 0.00 0.00
8:52 am 08:52 Mostly Cloudy 55 12.8 37 2.8 51 51 W 14 22 29.65 1004 10 16 0.00 0.00
9:52 am 09:52 Mostly Cloudy 56 13.3 37 2.8 49 49 W 13 20 29.66 1004 10 16 0.00 0.00
10:52 am 10:52 Mostly Cloudy 59 15 37 2.8 44 44 WNW 22 35 29.66 1004 10 16 0.00 0.00
11:52 am 11:52 Mostly Cloudy 60 15.6 38 3.3 44 44 W 21 33 29.68 1005 10 16 0.00 0.00
12:52 pm 12:52 Mostly Cloudy 59 15 36 2.2 42 42 W 15 24 29.69 1005 10 16 0.00 0.00
1:52 pm 13:52 Mostly Cloudy 59 15 36 2.2 42 42 WNW 25 41 29.69 1005 10 16 0.00 0.00
2:52 pm 14:52 Mostly Cloudy 59 15 37 2.8 44 44 W 23 37 29.70 1006 10 16 0.00 0.00
3:52 pm 15:52 Mostly Cloudy 58 14.4 37 2.8 46 46 W 21 33 29.71 1006 10 16 0.00 0.00
4:52 pm 16:52 Mostly Cloudy 57 13.9 37 2.8 47 47 NW 16 26 29.73 1007 10 16 0.00 0.00
5:52 pm 17:52 Partly Cloudy 57 13.9 36 2.2 45 45 WNW 20 31 29.75 1007 10 16 0.00 0.00
6:52 pm 18:52 Partly Cloudy 57 13.9 36 2.2 45 45 undefined N/A 29.77 1008 10 16 0.00 0.00
6:57 pm 18:57 Partly Cloudy 56 13.3 36 2.2 47 47 NNW 9 15 29.78 1008 10 16 0.00 0.00
7:52 pm 19:52 Mostly Clear 56 13.3 35 1.7 46 46 WNW 10 17 29.79 1009 10 16 0.00 0.00
8:52 pm 20:52 Partly Cloudy 55 12.8 35 1.7 47 47 WNW 13 20 29.80 1009 10 16 0.00 0.00
9:52 pm 21:52 Mostly Clear 54 12.2 36 2.2 51 51 WSW 6 9 29.83 1010 10 16 0.00 0.00
10:52 pm 22:52 Clear 54 12.2 34 1.1 47 47 NW 13 20 29.85 1011 10 16 0.00 0.00
11:52 pm 23:52 Clear 53 11.7 33 0.6 47 47 WNW 12 19 29.84 1011 10 16 0.00 0.00

Powered by AerisWeather